SL-16 DEB, 22645

Orbit data source: Space-Track

SL-16 DEB, 22645 is space debris in LEO originally from a launch on Fri, 26 Mar 1993 UTC launched from the Tyuratam Missile And Space Complex (TTMTR). Debris objects in space refer to the collection of defunct objects orbiting the Earth. Examples of debris include non-operational satellites, rocket bodies, and fragments generated from explosions, collisions, or faulty payload assembly.

Loading next visibility...
Identifier
22645, 1993-016AF
Orbit
LEO
Country
Flag of CISCIS
Related business
Manufacturer
Unknown
Mission
Spacecraft
Bus & Motor
Unknown
Mass
Unknown
Launch date (UTC)
1993-03-26 (33 years ago)
Launch vehicle
Unknown
Launch site
Tyuratam Missile And Space Complex (TTMTR)
Object type
Payload
Rocket body
Debris
Shape & HBR
Unknown shape, 0.1 m
Radar Cross Section
Small (<0.1 m²)

Expand to show TLE details & history
Last TLE update: 12 hours ago

TLE from 12 hours ago
0 SL-16 DEB
1 22645U 93016AF  26255.15269050  .00000350  00000-0  30299-3 0  9990
2 22645  70.9862 171.3406 0168107 215.1800 143.8119 13.86817234684395
Epoch: 2026-09-12T03:39Z
TLE epoch observation values (Epoch: 2026-09-12T03:39:52.459Z)
Latitude
0.00003°
Longitude
125.20624°
Altitude
1,042.181 km
Speed
7.281 km/s
True Right ascension
11h 25m 21s
True Declination
0° 00' 00"
Sunlit
Object was in daylight at epoch
Visualization orbit readout
Latitude
Unknown
Longitude
Unknown
Altitude
Unknown
Speed
Unknown
Apparent Right ascension
Unknown
Apparent Declination
Unknown
Sunlit
N/A
Visualization observer readout
Local Sidereal Time
07:39:37
Azimuth
Unknown
Elevation
Unknown
Doppler factor
Unknown
Orbital elements
Apogee altitude
1,060.744 km
Perigee altitude
814.774 km
Semi-major axis
7,315.896 km
Eccentricity
0.01681
Inclination
70.9862°
RAAN
171.3406°
Arg. of periapsis
215.18°
True anomaly
144.93025°
Mean anomaly
143.8119°
Eccentric anomaly
144.37296°
Mean motion
3.4685 °/min
Orbital period
103.79 mins
BSTAR
0.00030299
Loading maneuver chart data...
Computing Atmospheric mass density...
Loading historical data...
Loading historical data...
Loading historical data...
Loading historical data...
Loading historical data...
Loading historical data...
Loading historical data...

Documentation

Showing up to 5 results
|